Beatrice, NE

11:01 PM CST on February 22, 2017 (GMT -0600)
Beatrice Municipal

Weather History for KBIE - February, 2000

Change the Weather History Date:

Tuesday, February 15, 2000

  Actual Average Record
Temperature  
Mean Temperature 46 °F -  
Max Temperature 68 °F 41 °F 73 °F (1954)
Min Temperature 24 °F 20 °F -6 °F (1958)
Degree Days  
Heating Degree Days 19    
Moisture  
Dew Point 25 °F    
Average Humidity 55    
Maximum Humidity 75    
Minimum Humidity 23    
Precipitation  
Precipitation 0.00 in - - ()
Sea Level Pressure  
Sea Level Pressure 29.81 in    
Wind  
Wind Speed 14 mph (SSW)    
Max Wind Speed 25 mph    
Max Gust Speed 31 mph    
Visibility 10 miles    
Events      
Averages and records for this station are not official NWS values.
T = Trace of Precipitation, MM = Missing Value Source: NWS Daily Summary

Daily Weather History Graph

Daily Weather History Graph

Search for Another Location

Airport or City:

Trip Planner

Search our weather history database for the weather conditions in past years. The results will help you decide how hot, cold, wet, or windy it might be!

Date:

Astronomy

Feb. 15, 2000 Rise Set
Actual Time 7:21 AM CST 6:01 PM CST
Civil Twilight 6:53 AM CST 6:29 PM CST
Nautical Twilight 6:21 AM CST 7:01 PM CST
Astronomical Twilight 5:49 AM CST 7:33 PM CST
Moon 1:51 PM CST (2/15) 3:54 AM CST (2/15)
Length of Visible Light 11h 36m
Length of Day
10h 40m
Waxing Gibbous, 80% of the Moon is Illuminated
Feb 15
Waxing Gibbous
Feb 19
Full
Feb 26
Last Quarter
Mar 5
New
Mar 13
First Quarter

Hourly Weather History & Observations

Time (CST) Temp. Windchill Dew Point Humidity Pressure Visibility Wind Dir Wind Speed Gust Speed Precip Events Conditions
12:11 AM 39.2 °F 31.2 °F 24.8 °F 56% 29.82 in 10.0 mi South 13.8 mph 21.9 mph N/A   Clear
12:34 AM 37.4 °F 28.2 °F 24.8 °F 60% 29.81 in 10.0 mi SSE 16.1 mph 20.7 mph N/A   Clear
12:50 AM 37.4 °F 29.3 °F 24.8 °F 60% 29.81 in 10.0 mi SSE 12.7 mph 19.6 mph N/A   Clear
1:33 AM 37.4 °F 29.3 °F 24.8 °F 60% 29.80 in 10.0 mi South 12.7 mph - N/A   Clear
1:51 AM 37.4 °F 28.5 °F 24.8 °F 60% 29.79 in 10.0 mi South 15.0 mph - N/A   Clear
2:10 AM 37.4 °F 28.5 °F 24.8 °F 60% 29.79 in 10.0 mi South 15.0 mph - N/A   Clear
2:33 AM 37.4 °F 29.3 °F 24.8 °F 60% 29.79 in 10.0 mi South 12.7 mph - N/A   Clear
2:50 AM 37.4 °F 29.3 °F 24.8 °F 60% 29.78 in 10.0 mi South 12.7 mph 18.4 mph N/A   Clear
3:10 AM 37.4 °F 30.3 °F 24.8 °F 60% 29.78 in 10.0 mi South 10.4 mph - N/A   Clear
3:34 AM 37.4 °F 29.8 °F 24.8 °F 60% 29.77 in 10.0 mi South 11.5 mph 18.4 mph N/A   Clear
3:50 AM 37.4 °F 29.8 °F 24.8 °F 60% 29.77 in 10.0 mi South 11.5 mph - N/A   Clear
4:32 AM 35.6 °F 27.1 °F 24.8 °F 65% 29.74 in 10.0 mi SSE 12.7 mph - N/A   Clear
4:50 AM 35.6 °F 27.5 °F 24.8 °F 65% 29.73 in 10.0 mi SSE 11.5 mph - N/A   Clear
5:11 AM 33.8 °F 25.3 °F 24.8 °F 70% 29.72 in 10.0 mi SSE 11.5 mph - N/A   Clear
5:34 AM 33.8 °F 25.8 °F 24.8 °F 70% 29.71 in 10.0 mi SSE 10.4 mph - N/A   Clear
5:50 AM 35.6 °F 28.6 °F 24.8 °F 65% 29.72 in 10.0 mi SSE 9.2 mph - N/A   Clear
6:11 AM 35.6 °F 27.5 °F 24.8 °F 65% 29.70 in 10.0 mi SSE 11.5 mph - N/A   Clear
6:31 AM 33.8 °F 27.0 °F 24.8 °F 70% 29.70 in 10.0 mi SSE 8.1 mph - N/A   Clear
6:50 AM 33.8 °F 27.0 °F 24.8 °F 70% 29.69 in 10.0 mi SSE 8.1 mph - N/A   Clear
7:11 AM 33.8 °F 26.4 °F 24.8 °F 70% 29.69 in 10.0 mi South 9.2 mph - N/A   Clear
7:34 AM 33.8 °F 25.8 °F 26.6 °F 75% 29.69 in 10.0 mi South 10.4 mph - N/A   Clear
7:52 AM 35.6 °F 27.1 °F 26.6 °F 70% 29.70 in 10.0 mi South 12.7 mph - N/A   Clear
8:11 AM 37.4 °F 28.9 °F 26.6 °F 65% 29.69 in 10.0 mi South 13.8 mph 20.7 mph N/A   Clear
8:33 AM 39.2 °F 31.2 °F 28.4 °F 65% 29.70 in 10.0 mi SSW 13.8 mph - N/A   Clear
8:50 AM 39.2 °F 30.2 °F 28.4 °F 65% 29.70 in 10.0 mi SSW 17.3 mph 24.2 mph N/A   Clear
9:11 AM 42.8 °F 34.8 °F 28.4 °F 57% 29.70 in 10.0 mi SSW 17.3 mph - N/A   Clear
9:33 AM 44.6 °F 37.2 °F 30.2 °F 57% 29.70 in 10.0 mi SSW 17.3 mph 21.9 mph N/A   Clear
10:10 AM 48.2 °F - 30.2 °F 50% 29.71 in 10.0 mi SW 17.3 mph - N/A   Clear
10:33 AM 51.8 °F - 30.2 °F 44% 29.73 in 10.0 mi WSW 13.8 mph - N/A   Clear
10:54 AM 53.6 °F - 30.2 °F 41% 29.73 in 10.0 mi WSW 15.0 mph 20.7 mph N/A   Clear
11:10 AM 53.6 °F - 30.2 °F 41% 29.74 in 10.0 mi WSW 15.0 mph - N/A   Clear
11:55 AM 57.2 °F - 30.2 °F 36% 29.73 in 10.0 mi West 11.5 mph 18.4 mph N/A   Clear
12:10 PM 60.8 °F - 30.2 °F 31% 29.73 in 10.0 mi West 12.7 mph - N/A   Clear
12:31 PM 62.6 °F - 30.2 °F 30% 29.74 in 10.0 mi West 15.0 mph 19.6 mph N/A   Clear
12:50 PM 62.6 °F - 30.2 °F 30% 29.73 in 10.0 mi West 11.5 mph - N/A   Clear
2:10 PM 68.0 °F - 28.4 °F 23% 29.74 in 10.0 mi WNW 23.0 mph 29.9 mph N/A   Clear
2:30 PM 68.0 °F - 28.4 °F 23% 29.74 in 10.0 mi WNW 25.3 mph 31.1 mph N/A   Clear
3:10 PM 66.2 °F - 26.6 °F 23% 29.77 in 10.0 mi WNW 23.0 mph 29.9 mph N/A   Clear
3:30 PM 66.2 °F - 26.6 °F 23% 29.78 in 10.0 mi NW 20.7 mph 31.1 mph N/A   Clear
4:13 PM 66.2 °F - 26.6 °F 23% 29.81 in 10.0 mi NW 24.2 mph 29.9 mph N/A   Clear
8:51 PM 30.2 °F 18.9 °F 17.6 °F 60% 30.15 in 10.0 mi NNW 16.1 mph 28.8 mph N/A   Clear
9:10 PM 28.4 °F 14.7 °F 17.6 °F 64% 30.16 in 10.0 mi NNW 21.9 mph 27.6 mph N/A   Clear
9:52 PM 28.4 °F 16.6 °F 15.8 °F 59% 30.18 in 10.0 mi North 16.1 mph - N/A   Clear
10:11 PM 26.6 °F 14.7 °F 17.6 °F 69% 30.20 in 10.0 mi NNW 15.0 mph - N/A   Clear
10:33 PM 26.6 °F 15.7 °F 15.8 °F 64% 30.20 in 10.0 mi NNW 12.7 mph - N/A   Clear
10:50 PM 24.8 °F 15.3 °F 15.8 °F 69% 30.22 in 10.0 mi NNW 9.2 mph - N/A   Clear
11:13 PM 24.8 °F 16.1 °F 14.0 °F 64% 30.23 in 10.0 mi NW 8.1 mph - N/A   Clear